Regional Weather Roundup
Issued by NWS

Home | Current Version | Previous Version | Text Only | Print | Product List | Glossary On
Versions: 1 2 3 4 5 6 7 8 9 10 11 12 13 14 15 16 17 18 19 20 21 22 23 24 25 26 27 28 29 30 31 32 33 34 35 36 37 38 39 40 41 42 43 44 45 46 47 48 49 50
000
ASUS43 KMKX 190511
RWRWI

WISCONSIN REGIONAL WEATHER ROUNDUP
NATIONAL WEATHER SERVICE MILWAUKEE/SULLIVAN WI
1200 AM CDT SAT APR 19 2014

NOTE: "FAIR" INDICATES FEW OR NO CLOUDS BELOW 12,000 FEET WITH NO
SIGNIFICANT WEATHER AND/OR OBSTRUCTIONS TO VISIBILITY.

WIZ001-002-006>008-014>016-023>028-190600-
NORTHWEST WISCONSIN

CITY           SKY/WX    TMP DP  RH WIND       PRES   REMARKS
SUPERIOR ARPT  CLOUDY    32  28  84 NE10      30.32F WCI  23
ASHLAND        CLOUDY    29  26  89 N3        30.36R
HAYWARD        CLOUDY    40  17  39 E8        30.29S WCI  34
SIREN          MOCLDY    40  21  46 E5        30.26S
RICE LAKE      PTCLDY    40  23  51 E8        30.29S WCI  34
LADYSMITH      CLOUDY    40  20  44 E8        30.31S WCI  34
EAU CLAIRE     CLEAR     43  23  45 E12G17    30.27S
MENOMONIE      FAIR      41  27  56 E8        30.27R
NEW RICHMOND   PTCLDY    42  27  55 E8        30.24S
OSCEOLA        MOCLDY    42  28  57 E14       30.25F
$$

WIZ003>005-009-010-017-018-190600-
NORTH CENTRAL WISCONSIN

CITY           SKY/WX    TMP DP  RH WIND       PRES   REMARKS
WOODRUFF       MOCLDY    34  25  69 SE9       30.34R WCI  27
RHINELANDER    PTCLDY    32  22  66 E10       30.35F WCI  24
EAGLE RIVER    PTCLDY    31  22  67 SE5       30.34F WCI  27
LAND O LAKES   MOCLDY    30  25  79 CALM      30.35F
PHILLIPS       MOCLDY    36  22  57 E9        30.32R WCI  29
TOMAHAWK       MOCLDY    35  21  56 SE5       30.35R WCI  31
MEDFORD        PTCLDY    37  22  56 E9        30.32R WCI  30
MERRILL        PTCLDY    36  24  62 CALM      30.35R
$$

WIZ029-030-035-036-043>047-190600-
CENTRAL WISCONSIN

CITY           SKY/WX    TMP DP  RH WIND       PRES   REMARKS
WAUSAU         PTCLDY    36  27  69 E12       30.33F WCI  28
MOSINEE        CLEAR     36  28  75 E8        30.34F WCI  29
MARSHFIELD     CLEAR     39  30  70 E10       30.32R WCI  32
STEVENS POINT  CLEAR     36  27  69 E10       30.35S WCI  28
WAUPACA        CLEAR     37  27  65 E6        30.38S WCI  33
WAUTOMA        CLEAR     37  27  68 E7        30.38R WCI  31
WISC RAPIDS    CLEAR     38  29  70 E12G20    30.35S WCI  30
CAMP DOUGLAS   CLEAR     40  31  69 E12       30.31S WCI  33
$$

WIZ011>013-019>022-031-037>040-048>050-190600-
NORTHEAST WISCONSIN

CITY           SKY/WX    TMP DP  RH WIND       PRES   REMARKS
ANTIGO         CLEAR     32  25  74 SE8       30.36F WCI  25
STURGEON BAY   CLEAR     32  25  74 E3        30.41F
GREEN BAY      CLEAR     33  26  75 E8        30.40F WCI  26
MANITOWOC      CLEAR     33  27  78 CALM      30.42S
APPLETON       CLEAR     34  25  69 E6        30.39S WCI  29
CLINTONVILLE   CLEAR     34  30  86 E5        30.39F WCI  30
OSHKOSH        CLEAR     35  26  69 E10       30.38R WCI  27
$$

WIZ032>034-041-042-053>061-190600-
SOUTHWEST WISCONSIN

CITY           SKY/WX    TMP DP  RH WIND       PRES   REMARKS
LA CROSSE      CLEAR     45  27  49 S6        30.26S
SPARTA         CLEAR     39  25  56 E6        30.30S WCI  35
VIROQUA        FAIR      42  28  58 E13       30.26S
BOSCOBEL       CLEAR     47  28  47 VRB6      30.29S
PRAIRIE DU CHI PTCLDY    47  28  47 E12       30.26F
PLATTEVILLE    FAIR      42  35  78 E13       30.31R
$$

WIZ056-057-062-063-064-067-068-190600-
SOUTH CENTRAL WISCONSIN

CITY           SKY/WX    TMP DP  RH WIND       PRES   REMARKS
BARABOO/DELLS  CLEAR     37  30  75 E7        30.34R WCI  32
LONE ROCK      CLEAR     43  34  70 E15       30.32R
WATERTOWN      CLEAR     34  26  74 E9        30.37R WCI  26
MADISON        CLEAR     36  27  69 E9        30.37R WCI  29
MIDDLETON      FAIR      38  28  66 E10       30.36R WCI  31
MONROE         CLEAR     36  29  77 E7        30.33R WCI  30
JANESVILLE     CLEAR     36  27  69 E13G18    30.35S WCI  27
$$

WIZ051-052-058>065-066-070>072-190600-
SOUTHEAST WISCONSIN

CITY           SKY/WX    TMP DP  RH WIND       PRES   REMARKS
MILWAUKEE      CLEAR     35  28  75 NE6       30.40S WCI  30
WAUKESHA       CLEAR     32  27  80 E5        30.39S WCI  27
MILWAUKEE/TIMM CLEAR     34  27  75 E3        30.40S
RACINE         CLEAR     35  28  75 NE10      30.40S WCI  27
BURLINGTON     CLEAR     30  26  85 E6        30.37F WCI  24
KENOSHA        CLEAR     33  27  78 NE8       30.38S WCI  26
FOND DU LAC    CLEAR     35  24  64 E13G18    30.38S WCI  26
SHEBOYGAN      CLEAR     32  26  78 NE8       30.40S WCI  25
WEST BEND      CLEAR     32  27  80 NE3       30.39R
JUNEAU         CLEAR     34  24  66 E9        30.39R WCI  27
$$

LSZ147-162-190600-
LAKE SUPERIOR

STATION/POSITION TIME  TEMP    WIND        PRES    WAVE
                       AIR SEA DIR/SP/G            HT/PER
                 (UTC) (F)     (DEG/KT/KT) (MB)    (FT/S)
DEVILS ISLAND    0500   32      90/ 11/ 12 1029.6R
PORT WING        0400   34      80/  4/  7 1027.4
SAXON HARBOR     0400             CALM     1027.8F
$$

LMZ867-665-643>646-190600-
LAKE MICHIGAN

STATION/POSITION TIME  TEMP    WIND        PRES    WAVE
                       AIR SEA DIR/SP/G            HT/PER
                 (UTC) (F)     (DEG/KT/KT) (MB)    (FT/S)
NORTHPORT PIER   0400   32      50/  2/  5 1030.1S
SISTER BAY       0423   30        CALM       N/A
KEWAUNEE LAKESHO 0400   34      70/  4/  7 1030.3R
SHEBOYGAN LAKESH 0500   36      30/ 11/ 12 1030.5R
PORT WASHINGTON  0440   38      40/ 10/ 12 1029.8S
MILWAUKEE LAKESH 0400   36      20/  7/  8   N/A
KENOSHA   LAKESH 0500   38      30/ 14/ 17   N/A
$$

TC  - TEMPERATURE IN CELSIUS
VSB - VISIBILITY IN STATUTE MILES
WCI - WIND CHILL INDEX
HX  - HEAT INDEX




USA.gov is the U.S. government's official web portal to all federal, state and local government web resources and services.